FALCON 9 R/B, 62853

Orbit data source: Space-Track

FALCON 9 R/B, 62853 is space debris in HEO originally from a launch on Thu, 30 Jan 2025 UTC launched from the Air Force Eastern Test Range (AFETR). Debris objects in space refer to the collection of defunct objects orbiting the Earth. Examples of debris include non-operational satellites, rocket bodies, and fragments generated from explosions, collisions, or faulty payload assembly.

Loading next visibility...
Identifier
62853, 2025-021B
Orbit
HEO
Country
Flag of USUS
Related business
Manufacturer
SpaceX
Mission
Spacecraft
Bus & Motor
F9ST2, Unknown motor
Mass
~4,000 kg wet, ~4,000 kg dry
Launch date (UTC)
2025-01-30 (11 months ago)
Launch vehicle
Unknown
Launch site
Air Force Eastern Test Range (AFETR)
Object type
Payload
Rocket body
Debris
Shape & HBR
Cyl, 8.0 m
Radar Cross Section
39.980 m², Large (>1 m²)

Expand to show TLE details & history
Last TLE update: 5 days ago

TLE from 5 days ago
0 FALCON 9 R/B
1 62853U 25021B   25346.58134407 -.00000133  00000-0  54848-3 0  9996
2 62853  24.8794 290.4206 8278994 266.4259   8.5259  1.11099397  3512
Epoch: 2025-12-12T13:57Z
TLE epoch observation values (Epoch: 2025-12-12T13:57:08.127Z)
Latitude
0.00001°
Longitude
-0.50654°
Altitude
6,696.884 km
Speed
7.13 km/s
True Right ascension
19h 21m 11s
True Declination
0° 00' 00"
Sunlit
Object was in daylight at epoch
Visualization orbit readout
Latitude
Unknown
Longitude
Unknown
Altitude
Unknown
Speed
Unknown
Apparent Right ascension
Unknown
Apparent Declination
Unknown
Sunlit
N/A
Visualization observer readout
Local Sidereal Time
07:40:12
Azimuth
Unknown
Elevation
Unknown
Doppler factor
Unknown
Orbital elements
Apogee altitude
65,610.61 km
Perigee altitude
399.756 km
Semi-major axis
39,383.32 km
Eccentricity
0.8279
Inclination
24.8794°
RAAN
290.4206°
Arg. of periapsis
266.4259°
True anomaly
95.31006°
Mean anomaly
8.5259°
Eccentric anomaly
37.2151°
Mean motion
0.2777 °/min
Orbital period
1,296.37 mins
BSTAR
0.00054848
Loading maneuver chart data...
Computing Atmospheric mass density...
Loading historical data...
Loading historical data...
Loading historical data...
Loading historical data...
Loading historical data...
Loading historical data...
Loading historical data...
Other satellites on launch #21 in the year 2025 (2025-01-30 UTC)

Documentation

Showing up to 5 results
|